Temp
24 23 22 22 22 22 22 22 22 22 22 22 22 21 21 21 20 20 20 21 20 18 18 19 19 18 20 19 19 17 17 17 17 16 17 17 17 17 17 16 16 16 17
23 23 22 23 23 22 22 22 22 22 22 22 22 21 21 21 20 20 20 21 19 18 18 19 20 19 19 20 19 18 17 17 18 17 16 15 16 16 16 15 15 15 15
24 23 23 23 23 23 22 22 22 22 22 22 22 22 22 22 21 21 20 20 19 19 18 19 20 19 19 19 19 18 17 17 18 18 14 14 15 15 14 14 14 14 15
25 24 23 22 22 22 22 21 21 22 22 22 22 23 23 22 21 20 19 19 18 18 18 19 20 19 19 19 18 18 18 17 17 15 14 13 13 13 13 13 13 13 12
25 24 23 23 22 22 22 21 22 22 22 22 22 22 21 21 20 19 19 18 18 18 17 19 20 20 19 19 19 18 18 17 16 14 13 13 13 13 13 13 12 12 12
24 24 23 23 22 22 21 21 21 22 22 22 21 21 20 19 18 17 17 18 17 18 18 18 17 18 18 18 17 19 17 17 16 14 13 13 13 12 12 12 12 12 12
24 24 23 23 21 21 20 21 22 21 21 21 21 21 19 16 17 16 16 16 17 17 17 17 19 17 16 16 16 16 16 17 16 15 13 13 12 12 12 12 12 12 11
25 24 23 22 21 20 21 22 21 20 20 19 20 19 18 15 15 15 15 15 15 15 15 17 18 16 17 16 16 16 16 16 16 15 14 13 13 12 12 12 12 11 11
24 23 22 21 20 21 22 21 20 20 19 19 20 19 18 14 14 15 14 14 14 14 15 15 16 16 15 15 16 15 14 15 15 14 13 13 13 12 12 12 11 11 11
23 24 24 24 20 22 22 21 20 20 20 20 19 18 16 15 14 14 14 14 13 13 14 14 15 15 15 14 14 13 13 12 13 12 12 12 12 12 12 12 12 12 11
23 24 22 23 23 22 21 20 20 21 21 20 19 18 16 15 14 14 14 14 14 14 13 14 14 14 14 14 14 13 13 12 11 11 11 11 12 12 13 12 12 12 13
25 23 22 21 21 21 21 21 21 20 20 19 19 18 16 14 14 14 14 14 13 14 13 12 13 13 13 13 13 13 12 11 11 11 11 11 11 12 12 12 13 15 16
24 23 22 21 22 21 20 20 21 21 21 21 19 19 16 14 14 13 13 14 14 14 13 12 12 12 13 13 12 12 12 11 11 11 11 11 12 13 13 13 14 15 15
24 23 23 22 22 22 21 19 19 19 19 19 18 18 16 13 13 13 13 13 13 13 12 12 12 12 12 12 11 12 12 12 12 12 12 12 13 14 14 14 15 16 17
24 23 23 23 22 21 17 18 18 17 18 19 19 19 17 15 14 14 15 15 14 12 12 12 12 12 12 11 12 13 13 13 13 13 14 14 15 15 16 16 17 18 19
24 24 24 24 23 22 20 18 17 17 17 18 19 20 18 17 14 14 14 15 14 13 15 16 15 15 15 15 16 15 15 15 15 15 16 17 17 17 17 18 19 19 19
25 25 25 25 23 22 23 22 19 15 17 17 17 17 17 15 14 14 14 14 14 14 16 17 17 18 17 16 15 16 17 16 16 17 17 19 19 19 19 20 20 20 20
25 25 25 25 25 22 21 22 22 20 20 17 16 16 15 14 14 14 14 14 14 15 17 18 18 19 19 18 18 17 18 17 18 18 19 20 20 21 21 21 21 21 21
25 26 26 26 25 24 22 22 21 22 21 18 14 14 14 14 14 14 14 16 17 17 17 18 18 18 18 18 20 19 19 19 19 20 21 21 22 22 21 21 21 21 21
25 26 25 26 25 26 24 22 21 21 22 21 20 16 13 13 12 12 14 16 17 18 18 19 19 18 19 20 20 21 21 21 21 21 21 21 21 21 21 21 22 22 21
26 25 24 26 26 27 26 26 25 24 23 22 22 19 16 18 16 15 17 16 17 19 19 19 19 20 21 21 20 20 20 20 21 21 22 22 21 21 21 22 22 22 22
27 25 26 27 27 27 27 26 26 26 26 25 21 19 19 18 22 20 20 20 21 22 22 21 20 20 21 21 22 22 22 22 22 22 22 22 22 22 22 22 22 22 22
26 26 26 27 26 25 26 27 26 26 26 26 23 20 19 21 22 23 23 23 23 23 23 22 23 23 23 23 22 22 22 22 22 21 21 22 22 22 22 22 22 22 22
18 20 21 23 20 25 26 25 24 24 19 20 23 23 22 23 24 23 23 23 24 24 23 23 23 23 23 22 21 21 20 22 22 22 22 22 22 22 22 22 23 23 23
9 10 11 14 16 16 17 16 15 16 15 15 15 17 17 15 15 14 15 16 16 16 16 16 17 16 16 15 16 16 18 19 21 21 21 21 22 22 22 22 23 23 23
6 6 6 6 6 7 8 8 8 8 8 8 9 9 9 9 9 9 9 10 11 12 12 11 10 8 9 12 12 13 15 16 17 17 18 18 19 20 21 21 22 22 22
Height
656 659 664 669 675 680 684 688 692 696 700 705 709 713 716 719 722 724 725 726 730 732 733 736 737 738 738 740 743 745 747 750 751 755 756 758 761 764 768 770 775 778 783
660 665 669 672 677 682 686 691 694 697 701 705 710 713 715 718 721 723 724 725 728 730 732 733 733 737 738 739 741 744 746 748 750 754 758 761 765 768 770 773 776 780 785
662 667 671 675 679 684 689 693 696 700 703 707 710 712 714 715 718 721 723 724 725 727 728 730 731 735 737 739 740 744 745 748 750 753 760 763 766 769 772 776 779 783 788
663 669 674 679 683 688 692 695 698 701 704 708 709 710 712 715 717 720 720 721 723 724 726 728 729 732 735 738 740 743 745 747 750 755 759 763 767 772 774 776 782 787 792
665 670 676 681 686 690 694 697 700 703 705 707 709 712 714 716 718 719 719 720 720 723 724 728 729 730 733 737 739 742 744 748 751 756 760 764 768 772 775 780 784 790 797
668 673 679 683 687 691 695 698 701 704 706 707 710 713 715 717 718 719 719 720 723 724 725 727 729 730 733 736 739 739 744 747 753 756 761 764 769 772 776 780 785 791 801
671 675 679 683 688 693 698 700 702 705 708 710 713 713 717 718 719 719 720 722 724 725 726 728 729 732 735 737 739 742 745 749 753 756 760 765 769 772 776 782 788 793 799
670 674 680 686 691 696 698 699 703 707 711 714 714 716 718 719 719 720 722 724 725 726 728 729 730 734 736 738 741 745 748 752 755 757 761 766 771 775 779 783 789 795 805
672 677 683 688 694 695 696 701 706 709 713 715 716 717 718 721 721 722 724 726 726 727 729 731 733 735 738 740 743 746 749 753 757 760 763 768 773 778 781 785 792 798 807
677 677 679 684 692 693 697 704 706 710 713 714 716 718 720 722 722 724 724 725 727 728 730 733 735 737 740 742 745 748 752 756 758 762 768 773 777 782 786 790 793 799 805
675 676 684 688 691 695 700 705 708 710 711 714 717 720 721 723 724 726 726 726 728 730 732 734 737 740 742 745 748 751 755 758 762 766 770 775 780 785 789 793 797 799 805
672 681 688 691 695 698 702 705 707 710 713 715 718 719 723 724 726 727 728 728 730 732 734 736 739 742 745 748 750 753 757 761 765 769 774 779 783 788 792 795 799 805 808
676 684 688 693 696 698 703 705 706 709 709 713 717 718 723 726 726 728 730 731 732 734 736 739 742 745 748 751 754 757 761 764 768 773 777 782 787 790 795 799 803 805 807
679 685 689 693 696 698 701 704 708 710 712 714 716 719 723 727 728 731 733 734 735 736 739 743 746 748 751 754 758 762 765 768 772 776 780 785 789 793 797 800 802 804 806
682 687 688 693 695 700 703 706 708 710 712 714 716 718 722 727 729 731 734 736 738 741 743 747 750 753 756 759 762 764 767 770 774 779 783 786 790 794 796 799 801 802 801
683 685 686 688 693 699 703 708 711 713 714 715 716 717 719 724 728 732 735 738 741 744 747 748 752 755 758 759 760 765 768 772 775 779 782 785 788 791 793 796 796 799 799
679 683 684 688 692 698 699 703 711 717 717 718 719 721 723 726 731 735 738 742 745 748 749 750 753 755 757 760 763 766 769 772 775 778 781 782 785 786 789 791 794 795 797
680 684 683 687 690 696 702 705 707 713 716 721 723 725 728 731 734 737 741 746 749 750 750 752 754 755 757 760 762 764 768 771 773 775 777 779 781 782 785 787 789 790 792
682 682 681 685 690 694 701 706 708 710 714 721 727 729 732 734 737 741 744 746 748 750 752 752 754 757 758 760 761 763 766 768 770 773 775 776 777 779 781 784 785 786 787
683 682 683 684 691 693 698 704 708 711 713 718 723 730 734 737 740 744 747 748 748 749 750 751 754 756 758 759 760 762 765 767 769 771 772 775 777 779 779 780 781 781 782
679 686 687 685 689 690 694 698 701 705 710 714 720 728 733 735 741 745 746 748 747 747 748 750 752 754 754 755 759 761 764 767 767 769 770 772 773 775 776 776 776 776 776
677 687 688 684 687 690 693 697 702 704 706 710 720 726 729 730 733 738 740 741 741 741 743 746 748 749 750 752 755 756 758 760 762 764 766 768 768 769 770 771 771 771 771
677 682 686 685 688 693 697 697 700 702 705 708 717 724 730 731 730 730 734 737 738 740 741 743 745 746 748 750 752 754 755 756 758 761 762 762 763 763 763 763 764 763 763
689 688 689 689 694 695 698 700 703 706 712 713 716 722 726 729 728 729 732 734 737 739 741 743 744 745 747 748 749 750 751 752 755 756 757 758 757 757 758 757 756 755 755
702 702 702 703 705 709 710 712 716 719 722 723 728 730 732 734 735 735 737 740 743 742 742 744 743 744 745 745 747 748 749 751 751 752 752 753 752 753 753 751 750 749 748
713 713 715 716 716 719 722 725 729 732 735 737 739 740 742 743 745 746 746 747 749 751 752 753 752 751 750 749 749 748 748 748 750 751 751 751 752 751 750 747 745 743 741
Wind_Speed
20 23 24 25 26 21 20 21 20 19 18 16 15 13 12 12 12 11 7 9 12 11 10 11 11 10 11 8 10 9 10 7 5 6 11 11 12 14 13 9 16 16 16
24 24 24 24 23 22 21 20 18 17 15 13 13 12 12 12 11 10 11 12 12 12 11 12 10 12 10 10 11 9 11 11 14 14 10 8 11 14 14 18 17 18 20
24 24 22 21 21 20 18 17 16 15 13 13 12 12 12 11 11 9 10 12 11 11 13 13 10 10 12 8 8 8 9 10 14 14 8 11 14 14 18 20 21 23 26
23 23 21 19 19 18 16 15 15 14 14 13 11 9 7 5 3 6 8 8 10 11 10 12 11 12 12 12 10 8 10 10 15 13 15 12 12 17 21 27 24 25 27
21 20 19 18 16 15 15 15 14 14 13 11 9 5 3 2 2 1 1 3 4 7 8 10 10 10 12 12 9 10 11 17 15 14 12 12 14 15 18 19 26 28 28
18 17 16 16 16 16 15 14 13 13 10 8 7 5 4 7 3 2 4 3 4 5 7 8 6 7 14 12 4 10 12 16 15 16 10 15 13 18 25 27 30 27 8
19 18 17 16 16 15 15 13 14 10 9 9 8 6 8 6 3 3 5 3 3 5 5 8 8 8 9 9 8 9 14 13 14 16 16 16 19 24 27 27 26 21 19
18 17 16 15 17 15 20 15 13 11 10 7 4 6 9 7 5 6 8 6 7 8 7 7 7 9 9 10 12 12 11 14 13 15 18 18 21 28 27 29 26 27 25
17 15 16 20 16 12 16 16 13 12 10 7 6 6 10 8 8 9 9 9 10 10 7 7 9 10 13 14 14 15 13 15 15 18 19 23 25 27 30 32 29 28 18
16 15 15 15 22 16 17 14 12 11 10 8 8 8 11 9 9 10 9 11 11 13 10 9 10 13 15 10 19 16 17 20 22 21 22 24 28 26 26 25 30 25 22
16 16 18 12 13 14 15 13 11 10 9 8 10 9 10 9 9 8 9 10 11 10 11 9 8 13 13 15 16 17 19 22 22 25 26 27 27 26 19 25 22 27 23
18 21 18 17 14 15 11 10 11 9 9 8 8 9 9 10 9 7 8 9 10 10 9 9 15 13 14 16 15 20 23 24 24 24 24 23 23 22 20 24 26 21 17
22 20 19 17 12 12 11 9 8 10 11 10 9 8 9 8 10 9 10 11 12 13 13 17 15 15 16 13 20 24 24 23 23 21 21 21 24 22 19 20 23 14 10
20 17 16 14 13 11 10 10 8 10 8 8 11 9 13 9 12 11 13 14 16 19 19 20 17 16 17 24 25 19 17 19 19 20 21 22 22 21 18 18 16 13 12
21 16 12 11 9 11 11 9 7 7 4 6 13 14 13 12 11 13 13 15 16 18 22 17 18 18 19 16 19 16 18 21 21 23 22 21 21 20 18 15 14 13 13
14 17 13 15 14 12 14 13 12 10 10 11 8 12 9 15 17 17 17 17 21 23 16 18 18 19 16 13 11 20 19 20 19 21 20 20 20 19 19 19 17 16 13
14 14 12 11 23 15 10 14 12 10 10 10 13 13 14 20 18 17 19 18 23 12 11 14 15 15 14 11 14 15 15 17 21 19 20 19 18 19 18 16 16 16 17
14 13 12 17 10 24 16 8 15 13 12 10 11 14 16 18 18 19 20 22 14 2 8 14 13 12 12 15 17 22 18 18 18 20 22 23 20 17 17 16 17 17 17
15 15 10 17 13 17 22 16 9 14 14 15 13 16 17 17 17 19 22 14 13 9 8 10 11 13 13 12 11 16 21 18 19 23 19 16 13 13 13 16 17 18 17
10 7 1 16 11 14 19 21 20 13 15 14 15 15 15 16 15 18 14 10 8 7 9 9 9 7 8 8 8 10 12 13 13 13 14 14 15 16 17 17 18 18 20
14 11 6 10 11 13 14 11 14 17 18 18 17 16 21 16 16 14 14 13 15 12 11 12 13 13 13 12 18 14 13 15 16 16 16 16 17 17 17 18 18 20 21
20 17 11 8 12 8 11 15 12 9 9 18 20 18 17 13 14 13 12 16 14 10 13 14 19 18 17 15 14 13 14 14 16 17 18 19 20 20 20 21 22 22 23
2 18 13 9 12 11 3 8 9 10 11 12 20 18 13 10 12 14 10 7 6 7 9 9 6 6 8 7 8 10 14 16 17 18 19 20 21 22 23 23 24 24 24
17 20 16 17 19 7 7 5 12 10 33 26 17 16 15 7 2 9 12 6 3 4 4 4 5 5 5 4 3 5 7 13 15 16 18 20 23 23 24 25 26 26 26
19 19 20 20 21 19 20 23 22 23 23 24 26 23 22 22 23 26 25 24 27 28 30 25 20 18 14 12 10 10 7 8 11 17 16 16 19 22 24 25 25 25 26
24 26 26 26 27 24 23 23 22 22 23 22 22 22 22 21 21 20 20 21 21 21 21 23 24 22 19 17 16 14 12 11 10 10 13 15 21 24 25 26 27 29 30
Wind_Direction
135 120 122 122 131 140 131 130 136 139 146 154 160 167 176 180 184 196 222 179 206 209 214 219 209 206 219 180 180 182 198 192 141 105 129 138 143 132 128 141 138 159 171
131 132 131 136 134 131 136 136 139 145 155 160 166 173 177 181 187 200 208 212 211 209 218 220 203 200 210 210 178 189 198 188 162 141 122 109 135 134 139 138 148 147 160
131 132 129 129 131 131 135 140 143 148 151 158 165 171 178 183 192 212 231 230 211 200 217 220 205 199 195 195 198 199 191 178 173 155 137 132 122 128 123 122 131 149 161
131 130 129 131 134 136 139 142 145 148 151 157 167 171 183 179 210 248 233 225 214 207 217 215 207 189 203 196 191 189 174 153 138 134 136 138 125 135 131 126 118 143 137
133 134 137 139 141 143 144 144 145 149 154 159 167 142 154 160 133 53 146 209 182 164 184 204 215 191 189 186 183 177 164 145 135 143 139 132 132 135 134 129 120 125 133
133 135 144 146 149 147 146 144 150 156 161 136 101 139 129 79 109 132 100 135 160 162 178 169 153 159 180 180 182 154 152 140 149 158 142 143 141 133 135 134 130 130 116
138 140 143 148 133 137 140 164 154 141 138 120 149 122 98 80 105 101 115 106 120 122 143 151 168 152 150 158 155 148 153 158 163 163 154 152 147 148 142 139 138 136 133
144 138 125 122 136 160 165 160 144 143 135 142 130 110 98 83 105 110 114 117 113 112 142 162 150 152 154 149 146 146 135 134 152 153 159 157 157 152 147 144 134 125 130
116 113 144 153 145 177 155 146 149 146 156 154 137 111 104 103 109 118 115 125 125 124 107 110 137 142 146 144 143 136 127 132 144 147 147 151 153 149 149 139 133 134 134
134 174 149 145 153 180 143 148 147 156 166 154 118 96 108 113 115 126 138 130 121 118 121 121 118 130 145 142 136 131 119 127 136 139 142 147 147 147 148 154 148 145 141
169 128 121 137 136 138 146 144 161 182 153 154 116 103 106 110 116 128 139 146 136 127 128 116 130 141 138 132 140 139 132 135 134 132 134 141 146 150 159 159 155 152 151
158 122 127 132 152 154 149 164 175 159 157 153 142 125 110 112 121 132 145 148 140 136 130 127 137 144 138 134 138 145 141 133 130 128 130 132 138 151 154 168 164 161 177
124 134 145 154 151 150 161 175 191 178 176 171 162 145 125 114 122 123 128 130 127 118 123 128 132 138 141 138 139 140 138 129 130 131 136 142 150 159 157 165 173 189 201
126 136 144 143 147 154 152 165 175 176 183 180 158 158 129 126 129 128 127 131 127 118 123 125 122 126 131 138 136 132 137 139 139 140 145 157 164 164 170 166 168 177 184
135 128 141 133 146 109 89 90 117 95 143 156 167 169 145 150 156 151 144 142 133 133 127 122 120 121 128 141 150 146 149 151 148 151 161 169 161 170 174 176 179 188 186
147 162 162 145 143 134 130 99 88 109 104 98 91 153 128 153 154 153 147 146 143 136 139 134 131 138 142 154 148 152 162 158 160 161 165 166 169 177 179 190 193 192 216
179 137 153 143 137 140 125 122 122 90 102 98 87 97 130 144 149 150 150 149 150 162 159 141 148 156 143 159 157 160 160 163 163 168 177 178 186 191 183 187 201 203 211
152 156 184 138 138 139 145 142 130 139 138 112 106 120 133 143 148 149 149 147 161 198 174 155 164 168 167 170 173 172 167 175 182 185 187 190 191 193 188 205 209 217 220
147 183 183 133 127 129 146 165 139 144 127 121 122 131 138 141 148 154 154 158 170 168 177 171 177 184 193 189 181 181 175 174 203 192 192 200 199 211 209 215 225 226 228
147 150 328 131 146 134 148 156 162 155 129 142 144 144 147 138 143 157 172 180 186 185 172 185 182 192 203 205 203 184 192 186 191 202 202 206 213 219 227 224 228 237 222
151 166 279 163 165 147 137 134 145 153 159 146 125 150 161 154 155 169 183 190 204 191 188 194 197 208 214 202 192 200 205 199 219 212 218 217 219 226 233 242 244 240 246
153 158 199 204 145 153 141 140 148 149 133 133 121 146 170 201 155 166 191 204 215 206 178 195 201 199 207 208 210 223 218 221 228 223 223 233 232 232 238 241 243 247 251
112 155 188 198 120 107 152 151 149 150 149 152 131 146 176 221 235 161 166 175 184 198 183 190 210 220 205 216 230 232 235 230 228 234 242 241 241 245 248 246 248 252 253
34 36 45 62 47 114 184 50 68 71 48 43 126 144 156 181 297 47 44 83 142 177 196 211 219 233 245 254 279 278 272 251 248 243 239 247 253 252 248 258 260 258 257
54 52 53 57 60 62 61 60 57 56 56 49 53 58 56 54 45 41 40 44 48 51 52 50 57 63 52 49 35 16 335 324 256 256 276 280 269 262 265 271 271 266 262
69 64 62 62 66 67 65 66 63 61 62 61 59 57 57 54 49 45 41 40 42 43 45 42 41 43 43 36 26 9 343 325 317 287 276 277 273 274 274 278 274 266 264